Terminal Aerodrome Forecast
Issued by NWS

Current Version | Previous Version | Text Only | Print | Product List | Glossary On
Versions: 1 2 3 4 5 6 7 8 9 10 11 12 13 14 15 16 17 18 19 20 21 22 23 24
000
FTUS43 KILX 291126
TAFBMI
TAF
KBMI 291126Z 2912/3012 08011KT 3SM BR OVC004
     FM291800 08014G22KT P6SM VCSH OVC020
     FM300000 08016G24KT P6SM OVC025
     FM300400 08018G26KT 6SM BR VCSH OVC020
     FM300900 10018G26KT 5SM -SHRA VCTS OVC015CB=

USA.gov is the U.S. government's official web portal to all federal, state and local government web resources and services.